This demonstration page uses our WeatherBlox Daily Observations layout. Learn more.

Left ArrowRight Arrow

30.00354, -91.81873

Hourly Observations for August 29, 2022

Temp ( °F °C ) Dew Point ( °F °C ) Humidity (%) Winds ( mph kmh ) Pressure ( in mb ) Visibility ( mi km ) Precip ( " mm )
12:53 am 00:53 Clear 77 25 74 23.3 90 90 E 6 9 29.91 1013 10 16 0.00 0.00
1:53 am 01:53 Clear 76 24.4 73 22.8 91 91 SSE 5 7 29.93 1014 10 16 0.00 0.00
2:53 am 02:53 Clear 76 24.4 74 23.3 94 94 Calm 29.93 1014 10 16 0.00 0.00
3:53 am 03:53 Mostly Clear 76 24.4 73 22.8 91 91 Calm 29.93 1013 10 16 0.00 0.00
4:53 am 04:53 Clear 77 25 73 22.8 88 88 E 3 6 29.93 1014 10 16 0.00 0.00
5:53 am 05:53 Clear 77 25 73 22.8 88 88 ENE 5 7 29.93 1014 10 16 0.00 0.00
6:53 am 06:53 Sunny 77 25 74 23.3 90 90 Calm 29.95 1014 10 16 0.00 0.00
7:53 am 07:53 Sunny 78 25.6 74 23.3 87 87 E 3 6 29.96 1015 10 16 0.00 0.00
8:53 am 08:53 Sunny 80 26.7 76 24.4 87 87 E 6 9 29.97 1015 10 16 0.00 0.00
9:53 am 09:53 Sunny 82 27.8 77 25 85 85 SE 3 6 29.99 1016 10 16 0.00 0.00
10:53 am 10:53 Sunny 84 28.9 78 25.6 82 82 SE 7 11 30.00 1016 10 16 0.00 0.00
11:53 am 11:53 Mostly Sunny 86 30 78 25.6 77 77 S 6 9 30.00 1016 10 16 0.00 0.00
12:17 pm 12:17 Mostly Cloudy 86 30 78 25.6 77 77 SSE 6 9 30.01 1016 10 16 0.00 0.00
12:30 pm 12:30 Partly Cloudy 87 30.6 78 25.6 75 75 SSE 9 15 30.00 1016 10 16 0.00 0.00
12:53 pm 12:53 Partly Cloudy 87 30.6 78 25.6 75 75 SSE 5 7 29.99 1016 10 16 0.00 0.00
1:53 pm 13:53 Sunny 89 31.7 77 25 68 68 SSE 7 11 29.98 1015 10 16 0.00 0.00
2:53 pm 14:53 Partly Cloudy 88 31.1 75 23.9 66 66 S 9 15 29.96 1015 10 16 0.00 0.00
3:53 pm 15:53 Sunny 88 31.1 75 23.9 66 66 S 9 15 29.95 1014 10 16 0.00 0.00
4:53 pm 16:53 Sunny with Nearby Thunderstorms 89 31.7 75 23.9 63 63 SSE 8 13 29.95 1014 10 16 0.00 0.00
5:42 pm 17:42 Sunny 89 31.7 76 24.4 65 65 S 9 15 29.95 1014 10 16 0.00 0.00
5:53 pm 17:53 Sunny 87 30.6 75 23.9 68 68 S 9 15 29.94 1014 10 16 0.00 0.00
6:53 pm 18:53 Sunny 85 29.4 76 24.4 75 75 S 3 6 29.96 1014 10 16 0.00 0.00
7:53 pm 19:53 Mostly Clear 82 27.8 77 25 85 85 Calm 29.95 1014 10 16 0.00 0.00
8:16 pm 20:16 Mostly Cloudy 82 27.8 77 25 85 85 Calm 29.96 1014 10 16 0.00 0.00
8:53 pm 20:53 Partly Cloudy 81 27.2 76 24.4 85 85 Calm 29.95 1014 10 16 0.00 0.00
9:53 pm 21:53 Clear 80 26.7 76 24.4 87 87 E 5 7 29.95 1014 10 16 0.01 0.13
10:53 pm 22:53 Clear 79 26.1 76 24.4 90 90 Calm 29.95 1014 10 16 0.00 0.00
11:53 pm 23:53 Clear 79 26.1 76 24.4 90 90 Calm 29.95 1014 10 16 0.00 0.00

Powered by AerisWeather